Location: Newark
(50.0953°N, 2.1719°E)
Time: 11:33:48
(UTC+00:00)

N. Korean satellite - Pass Details

Date: 27 January 2020
Orbit: 456 x 505 km, 97.2° (Epoch: 23 February)

Event Time Altitude Azimuth Distance (km) Brightness Sun altitude
Rises 06:23:50 0° 6° (N) 2,541 10.1 -11.0°
Reaches altitude 10° 06:25:59 10° 357° (N) 1,665 9.1 -10.7°
Maximum altitude 06:29:17 36° 290° (WNW) 784 7.1 -10.2°
Drops below altitude 10° 06:32:37 10° 223° (SW) 1,679 9.0 -9.7°
Sets 06:34:47 0° 214° (SW) 2,564 10.1 -9.4°
